Theta_e
356 357 357 357 358 357 357 358 357 358 357 358 357 357 357 358 356 357 359 358 358 358 359 360 361 361 361 362 361 363 365 365 366 367 367 366 365 365 365 364 363 363 364 365 366 366 366 364 364 365 364 361 360 359 357 356 355 352 353 351 348 351 348 346 342 342 348 353 348 346 350 349 348 354 352 352 355 355 350 354 357 355 355 354 355
356 357 357 357 357 357 357 357 358 357 357 357 357 356 357 357 358 358 357 358 359 357 359 359 361 360 360 361 363 363 365 367 364 365 365 365 365 364 363 363 362 362 363 363 366 365 366 365 364 365 365 362 361 359 359 357 355 353 353 351 349 350 351 347 345 344 343 349 350 353 350 351 346 356 351 350 351 355 355 354 354 355 355 355 354
355 357 357 357 357 357 357 357 357 357 356 356 355 355 356 357 358 357 356 356 359 358 358 358 360 361 360 361 363 363 365 365 365 364 364 365 365 364 364 364 364 362 362 364 365 366 364 365 363 364 364 362 362 361 360 358 358 356 355 355 353 352 353 351 347 345 345 345 351 349 349 354 349 350 356 354 354 355 354 354 352 353 354 354 353
354 356 356 356 356 357 357 357 356 356 355 355 355 355 355 356 358 357 356 356 356 358 359 358 360 362 360 361 362 362 363 363 363 364 364 365 365 365 366 366 365 364 365 364 365 365 364 364 363 363 364 362 362 362 361 360 358 357 356 357 357 355 355 354 351 348 347 345 350 350 351 350 351 355 354 354 351 352 353 353 355 353 353 354 354
353 354 354 354 355 355 355 356 355 355 355 355 355 355 355 356 357 356 356 355 356 358 359 360 360 361 358 359 361 361 362 363 363 362 363 364 365 364 365 366 366 365 365 365 364 365 365 363 363 365 365 362 362 361 362 361 359 358 356 357 356 356 355 354 353 351 348 346 347 352 355 353 352 352 353 349 350 352 355 354 352 353 355 353 351
353 353 353 353 354 354 355 355 354 355 355 355 355 355 355 356 356 356 356 356 356 356 358 358 359 360 360 360 361 362 363 363 363 363 361 363 364 364 364 365 364 365 365 365 365 365 364 364 364 365 364 362 361 362 363 362 361 359 358 357 357 356 355 355 354 352 350 348 349 348 353 351 352 354 356 354 349 347 348 352 355 355 353 351 349
353 353 353 352 354 354 354 355 355 355 356 355 356 356 355 355 355 355 356 356 356 356 356 358 359 360 361 361 361 362 363 363 363 364 363 363 364 364 362 363 364 364 365 364 364 364 364 364 364 364 364 363 362 362 363 363 362 361 360 359 359 357 355 355 354 353 351 350 350 351 350 352 352 349 353 356 353 349 346 345 346 351 356 354 352
353 353 353 353 354 354 355 356 356 357 357 358 357 356 356 356 356 357 357 356 356 356 356 356 358 359 360 361 361 362 363 362 363 364 364 363 363 363 363 362 362 363 364 364 363 363 363 364 362 364 364 365 364 364 364 362 363 361 361 361 359 357 355 354 354 352 351 350 349 348 350 350 352 353 353 353 349 348 349 347 344 346 348 353 355
353 352 353 353 355 357 357 357 357 358 358 358 357 357 356 357 357 357 358 357 356 357 357 357 358 359 359 360 361 361 360 361 361 362 362 362 363 361 362 362 362 362 363 362 363 363 363 363 363 363 365 363 355 354 356 356 362 361 362 362 360 358 356 355 354 352 351 350 349 351 349 349 350 350 349 349 348 346 351 353 348 348 348 347 347
353 352 352 354 357 358 359 358 358 359 358 358 358 358 357 357 356 357 357 357 358 358 358 358 357 357 358 360 360 360 360 360 352 338 344 361 363 361 361 363 363 362 362 362 362 362 363 363 362 362 354 351 347 342 338 338 341 353 361 362 358 357 356 355 353 352 352 350 349 349 347 347 348 350 349 350 352 353 351 351 347 347 349 346 345
352 352 353 356 358 359 359 358 359 358 358 359 359 359 358 358 358 358 358 358 358 359 358 357 357 357 357 358 358 358 359 358 338 332 333 336 356 362 361 362 363 363 361 362 362 361 362 363 364 364 358 350 352 338 337 335 335 334 336 342 351 359 357 354 354 354 351 350 350 350 348 347 349 351 350 350 351 350 349 351 349 347 344 340 338
351 353 354 357 358 357 357 358 358 358 358 358 359 359 359 358 358 358 358 357 359 359 358 357 358 357 357 357 357 357 358 342 332 331 331 330 337 359 361 361 361 361 362 361 361 362 361 361 362 363 364 364 364 363 348 336 332 332 331 332 334 337 341 354 355 353 354 352 350 350 350 349 350 352 350 349 350 350 351 350 347 344 340 339 340
352 355 355 356 357 357 358 358 358 357 358 358 359 359 359 358 358 357 356 357 358 358 358 357 357 358 357 357 356 357 358 339 331 329 329 328 328 342 358 360 359 359 360 361 361 362 363 362 362 363 364 358 360 363 365 364 338 330 330 331 331 330 330 331 334 352 357 354 352 351 352 353 352 353 353 353 354 350 351 347 347 343 342 341 342
353 353 355 356 357 358 358 357 357 358 358 358 358 358 358 357 357 356 356 357 357 357 356 357 357 358 358 357 358 358 358 340 328 327 326 326 327 332 357 358 359 360 361 361 361 362 363 363 362 362 364 365 365 363 364 365 366 363 356 352 352 347 332 327 327 327 336 350 353 352 355 357 352 355 357 356 354 351 349 346 346 345 344 345 348
352 353 355 356 357 357 357 357 357 358 358 358 358 358 357 357 357 356 355 355 356 356 356 356 357 358 357 357 357 356 356 335 325 323 323 322 324 328 356 358 358 360 361 362 363 362 363 364 364 362 363 364 365 364 364 364 365 364 363 361 361 361 360 356 349 348 347 345 347 350 353 355 356 358 360 359 357 355 350 347 348 348 348 349 347
353 355 356 356 356 356 357 357 357 358 358 358 357 357 357 357 357 357 357 356 357 357 357 357 356 357 357 357 355 356 356 332 325 322 321 321 323 342 354 358 358 358 360 362 362 364 364 363 364 364 364 364 355 340 348 364 364 362 359 360 360 361 361 352 342 343 353 354 353 352 352 354 340 356 357 355 356 352 346 348 350 348 345 342 341
354 355 355 354 355 356 356 356 357 358 358 357 357 356 356 357 358 359 356 356 355 355 356 356 358 357 357 357 356 356 357 339 322 319 318 318 324 350 354 356 358 358 359 361 362 363 364 365 364 363 363 364 350 332 332 341 362 361 360 360 360 359 358 361 341 330 330 328 329 331 330 329 326 324 322 322 340 347 346 342 341 344 340 337 340
355 357 354 356 356 357 357 357 357 358 358 357 357 356 357 358 357 358 356 354 353 355 356 357 357 358 357 356 356 356 357 344 320 317 316 316 329 352 355 356 357 358 359 361 362 363 364 357 362 364 363 363 341 329 329 341 360 360 361 359 358 356 358 360 363 363 327 324 324 325 325 326 326 324 323 321 322 334 341 334 341 346 341 339 337
355 355 356 357 358 359 358 358 359 358 358 358 358 357 357 358 358 359 357 357 356 358 358 357 357 358 357 357 347 352 357 347 320 318 316 314 330 354 356 356 356 357 357 358 361 361 363 359 353 351 356 354 335 328 325 338 360 361 360 359 355 355 357 362 363 363 365 361 351 339 338 333 338 343 345 327 323 333 340 343 345 343 339 340 341
357 357 358 359 360 360 359 361 360 359 359 360 359 359 360 359 359 359 359 358 357 357 357 358 357 357 358 358 357 356 356 358 349 317 315 313 318 351 357 355 354 355 357 356 357 361 361 363 356 331 328 329 327 323 319 323 356 361 361 357 355 355 361 364 365 365 363 360 357 356 355 357 357 358 359 359 353 342 341 345 347 347 345 343 343
360 360 360 359 359 359 359 360 360 360 361 361 360 359 360 359 359 360 358 358 358 358 358 358 357 358 358 359 359 358 358 358 358 316 314 312 314 324 355 356 356 356 357 357 357 357 359 360 361 339 324 323 321 318 316 315 328 359 361 359 360 361 355 362 363 349 355 351 350 351 353 354 355 355 355 355 354 354 353 351 350 349 348 345 343
361 362 363 361 359 360 360 362 362 361 363 363 362 361 362 361 360 360 359 359 359 359 360 359 358 358 359 360 361 361 357 346 361 324 315 312 312 313 345 355 356 357 357 357 357 357 358 360 363 347 324 320 318 315 313 315 316 349 358 334 334 334 359 360 361 352 348 348 349 349 349 349 350 351 351 351 350 351 350 350 349 348 350 350 347
361 362 362 360 361 361 362 363 363 362 363 364 364 362 363 362 362 363 362 361 360 359 360 360 359 358 360 360 361 362 362 358 334 350 316 312 311 311 319 339 334 358 356 357 358 358 361 362 362 350 327 315 313 313 313 313 316 336 325 324 325 330 344 351 348 345 344 345 345 345 346 348 349 349 350 349 348 349 347 347 347 347 345 346 347
362 360 361 361 361 361 362 363 363 363 364 364 363 363 362 363 362 363 363 361 359 359 359 359 359 357 357 358 360 361 363 363 341 330 337 312 312 310 311 316 326 350 356 356 358 359 360 362 358 332 318 311 309 312 313 314 333 319 316 319 321 328 343 342 340 341 341 341 341 342 347 350 350 348 347 346 344 345 342 342 343 344 343 343 343
361 360 358 360 361 361 362 363 363 364 364 364 363 362 363 364 362 364 363 361 360 359 360 360 358 358 357 358 359 361 362 362 362 342 326 319 312 311 311 312 315 319 350 356 358 359 341 325 317 314 312 309 308 309 311 312 316 316 313 314 325 337 339 340 341 344 344 345 346 347 347 347 346 345 345 343 340 339 340 339 339 338 338 338 337
361 360 360 361 361 361 362 362 364 366 366 365 364 364 363 362 361 363 362 360 360 359 359 359 357 358 359 359 359 361 362 363 362 361 337 331 321 313 313 313 315 316 328 350 333 321 313 311 309 310 312 318 337 350 351 343 318 317 315 321 334 336 338 341 343 344 346 345 343 342 343 342 340 340 339 337 337 335 335 334 333 333 335 332 331
364 363 362 361 363 363 362 361 363 364 366 364 363 364 363 363 363 362 362 360 360 360 359 358 358 358 358 359 361 361 362 362 362 361 360 354 349 339 325 325 316 319 325 337 330 337 328 333 338 331 333 330 338 335 335 329 332 332 331 333 337 338 338 341 344 345 345 343 342 341 339 337 338 338 336 335 334 334 334 331 330 330 331 331 329
362 362 360 361 362 363 363 362 362 361 363 363 361 362 363 364 363 363 362 362 361 360 360 359 358 359 358 359 361 361 361 361 361 360 360 358 356 354 345 341 339 336 337 341 343 346 347 330 329 344 343 345 345 347 347 347 345 342 341 340 341 341 341 341 340 344 343 339 337 336 335 336 333 333 333 333 333 333 333 330 328 328 328 329 328
367 365 364 362 359 361 359 361 359 360 362 365 365 346 361 366 365 366 367 368 365 363 363 362 361 362 361 361 360 361 361 361 363 341 362 339 353 357 354 348 347 345 338 329 347 346 346 345 346 347 347 346 345 346 341 339 336 335 335 336 338 339 340 340 339 338 338 335 334 333 332 332 332 333 332 332 333 331 331 329 330 328 328 328 326
367 365 366 364 363 361 359 358 360 360 360 360 351 334 309 298 310 348 366 345 338 333 336 361 364 364 363 364 366 363 362 364 340 325 323 320 320 324 329 328 326 342 328 321 339 346 344 345 346 345 346 347 345 343 338 333 330 329 331 327 334 334 334 335 336 334 333 332 332 330 331 331 331 331 330 330 331 330 329 324 327 327 326 324 324
365 365 366 366 363 366 362 362 364 365 362 360 354 348 342 332 299 295 304 311 313 316 312 317 326 338 360 364 358 332 329 324 319 313 312 312 312 312 313 315 317 312 311 337 344 347 346 345 347 347 346 347 344 338 334 331 330 329 330 330 332 330 329 331 330 328 328 329 329 330 331 331 329 328 328 327 327 327 328 327 327 326 324 324 323
363 363 364 362 360 365 366 365 363 362 360 357 356 351 350 348 343 306 296 300 299 300 307 312 312 314 321 338 351 354 322 308 307 306 308 309 308 308 308 306 304 305 310 321 347 348 349 349 347 346 345 341 336 335 332 331 331 332 331 331 330 330 330 330 329 331 330 331 330 330 330 329 328 327 326 325 323 326 326 326 326 325 325 325 325
361 362 363 364 362 362 362 362 360 359 357 355 353 354 353 351 350 344 328 299 295 296 297 297 299 305 308 310 316 328 329 319 305 305 305 305 303 302 300 300 302 303 310 338 351 348 348 346 343 341 339 336 333 332 331 331 332 332 333 332 330 330 332 332 327 331 331 331 330 329 328 328 327 328 324 325 325 326 326 326 327 326 326 325 324
360 360 360 362 363 363 362 362 360 359 357 357 355 355 354 355 354 351 345 342 336 317 302 295 294 300 303 303 310 315 309 302 300 300 299 299 299 299 303 309 300 304 323 349 348 344 343 341 338 336 335 333 330 329 329 331 331 333 334 332 331 332 331 331 331 331 329 327 329 327 328 328 327 328 327 326 326 326 327 325 326 325 325 324 323
356 355 356 358 363 362 361 360 359 358 358 357 356 354 355 355 356 352 351 349 350 350 349 334 307 294 311 310 298 297 298 298 298 299 299 299 301 302 309 333 335 336 340 345 343 341 338 336 335 332 330 328 328 328 328 331 332 332 332 332 331 331 332 332 331 332 330 329 329 328 329 329 329 326 328 327 326 326 326 326 326 325 324 323 323
352 353 355 356 357 358 359 360 359 357 357 356 357 355 355 354 351 352 349 353 355 350 339 329 322 308 299 294 293 296 295 297 297 298 299 300 303 312 340 339 337 337 336 338 338 335 335 333 332 330 329 328 328 330 332 332 333 333 333 331 331 331 332 331 329 330 330 330 328 328 326 330 328 327 329 327 328 326 326 327 325 323 323 322 322
347 349 350 354 357 357 358 358 358 357 347 351 352 354 354 353 350 352 352 352 348 344 338 331 327 325 319 317 305 296 295 296 297 298 300 302 303 331 340 340 337 335 335 335 333 332 330 330 330 330 330 330 331 332 332 332 333 333 327 334 333 333 332 331 330 331 331 330 330 330 330 330 329 330 329 326 326 326 326 326 325 322 322 319 319
347 347 349 353 357 356 357 356 351 340 348 350 353 353 351 352 350 349 349 346 342 339 338 333 329 333 329 322 319 316 309 301 302 305 307 310 326 332 329 329 330 329 328 328 329 329 328 328 330 329 330 330 331 333 333 333 333 331 330 332 332 330 321 325 326 331 332 330 329 330 329 329 330 329 327 328 326 326 325 326 324 324 325 322 322
346 335 328 332 339 354 353 350 348 349 349 348 350 351 348 347 347 346 344 340 338 338 337 336 335 333 328 325 324 322 322 327 328 328 329 332 332 331 329 328 326 326 326 326 326 327 327 326 326 327 329 330 331 333 334 333 333 333 332 331 329 327 328 329 330 331 329 328 328 329 329 329 330 329 329 327 325 326 326 325 324 324 323 323 323
344 345 340 331 344 345 348 351 348 348 348 348 348 347 346 347 347 344 340 337 335 336 340 336 334 331 328 328 327 329 330 329 329 329 329 330 330 330 328 326 326 326 326 326 326 326 326 326 326 326 328 329 329 330 332 333 332 331 332 331 329 329 330 329 329 328 327 327 328 329 329 328 328 329 328 326 326 326 326 325 324 325 324 324 324
343 344 344 339 338 345 347 345 347 347 346 347 346 346 346 345 344 340 338 335 334 334 332 330 329 327 325 316 310 317 328 326 326 326 326 327 328 328 328 327 327 327 327 327 328 328 327 327 329 330 330 329 329 329 330 330 330 330 329 329 330 328 328 329 330 329 328 328 329 328 329 328 328 329 325 326 319 324 325 326 326 326 325 325 324
340 341 343 344 341 345 344 344 343 343 345 345 346 345 343 340 339 337 335 332 330 328 326 324 323 321 310 306 307 310 325 327 326 326 327 328 329 329 328 328 329 329 328 328 329 328 328 329 330 330 329 329 328 328 329 329 329 329 328 328 328 327 326 327 329 331 330 329 328 328 329 328 329 327 327 318 327 327 327 324 324 324 324 324 324
339 340 343 343 343 343 342 343 343 344 344 344 342 339 338 336 335 333 331 329 327 326 324 323 322 323 319 311 314 315 327 327 326 326 326 324 324 323 323 323 323 325 326 327 328 328 327 326 326 326 327 327 327 328 327 327 327 327 328 329 328 328 327 326 327 328 328 329 328 328 330 329 328 328 327 327 327 326 325 325 325 323 323 324 323
335 337 339 340 341 342 342 343 341 342 341 338 337 335 334 333 332 330 328 327 326 326 324 324 324 323 323 320 319 323 326 324 323 323 321 320 318 317 316 317 317 317 318 320 324 326 326 325 323 323 322 321 321 322 322 322 324 325 326 327 327 327 329 329 330 329 329 329 329 329 329 328 328 328 326 324 326 325 325 325 324 323 321 322 321
333 333 335 336 337 338 339 340 337 336 334 333 332 331 330 329 328 328 327 326 325 326 326 326 326 326 325 326 325 323 322 320 319 317 316 315 314 313 312 312 313 313 312 311 312 315 318 318 317 317 316 315 315 315 315 315 315 316 317 319 322 322 321 321 323 326 329 330 329 328 328 329 328 327 326 325 323 323 321 323 324 321 322 322 321
328 329 329 329 327 326 325 325 326 328 328 327 325 324 324 324 325 325 324 324 324 323 322 321 321 320 318 317 316 315 314 313 312 311 311 310 310 310 309 309 309 309 309 309 309 310 311 312 313 313 312 312 312 313 313 313 313 313 313 313 312 312 312 313 314 318 325 329 329 329 328 327 327 326 324 324 324 321 321 321 322 321 321 320 321
325 328 325 325 323 322 321 320 319 318 318 317 317 316 316 316 317 317 317 316 316 316 315 315 314 312 312 311 310 309 308 308 307 307 306 307 307 307 307 307 307 307 307 307 308 308 309 309 310 311 311 311 311 311 311 310 311 310 310 309 307 307 307 306 309 315 318 319 322 327 328 329 326 324 324 322 322 321 320 319 318 319 320 318 319
316 317 318 318 318 317 316 315 314 314 312 312 311 311 311 310 310 311 311 312 312 311 311 310 310 310 310 310 310 308 307 306 306 305 304 304 304 305 305 305 305 305 305 305 306 307 308 308 309 309 309 309 309 308 308 307 307 307 307 306 302 299 296 296 308 314 313 314 319 323 325 326 325 325 323 323 321 320 318 318 318 318 318 318 317
312 312 311 312 312 312 312 311 311 309 308 308 307 307 307 306 306 306 306 306 305 306 306 306 306 306 306 306 306 306 305 305 303 303 303 303 303 302 302 302 303 302 302 302 303 303 304 304 305 306 306 306 306 305 304 304 303 303 303 302 297 292 290 292 300 306 299 309 318 322 325 325 325 324 323 322 320 321 320 319 320 317 317 318 317
309 309 309 308 308 308 308 308 308 307 307 306 305 304 304 304 304 304 303 304 303 303 303 303 303 303 303 303 303 303 303 303 302 303 303 302 302 301 301 300 299 299 299 298 298 299 298 299 299 299 300 301 301 302 302 301 301 300 299 297 291 289 290 291 295 294 302 314 319 322 323 323 324 324 323 323 322 321 320 318 318 317 317 317 317
309 308 308 307 306 306 305 305 304 304 303 303 302 302 302 302 302 303 302 301 300 301 301 301 300 301 301 301 302 301 301 301 301 301 301 301 301 301 300 299 298 298 298 297 297 297 297 297 297 296 297 297 298 298 298 297 297 296 292 290 289 289 290 293 300 294 294 299 319 322 321 320 320 320 319 319 319 320 318 317 317 316 317 315 316
Wind_Speed
19 17 16 17 16 17 17 16 17 15 15 14 14 14 13 13 12 12 10 11 10 11 11 11 11 11 11 10 11 10 9 9 8 7 8 8 8 8 8 9 9 9 8 9 8 7 7 7 8 7 6 6 6 5 5 5 5 5 5 5 6 5 6 6 8 11 9 5 5 6 4 3 6 5 7 6 6 7 10 10 10 9 9 9 10
18 17 16 16 18 18 18 16 16 15 16 15 15 14 13 12 12 11 12 11 11 12 12 11 10 11 11 11 11 10 9 9 9 8 8 9 9 7 8 10 10 10 9 10 9 7 7 8 8 8 7 8 7 7 6 6 6 6 6 6 6 6 6 6 7 8 13 6 5 4 6 5 7 6 6 7 8 7 8 8 8 9 9 9 9
18 16 16 16 18 17 17 16 16 17 18 16 17 16 14 13 12 12 13 11 11 12 12 12 11 11 11 11 10 10 10 9 9 9 9 10 10 9 9 9 10 10 10 10 8 7 8 8 8 8 6 7 7 7 6 6 6 6 7 6 7 7 6 7 7 9 11 11 7 8 6 5 7 7 6 6 7 7 8 8 8 7 8 9 9
18 18 17 18 18 17 17 16 18 18 18 16 17 17 15 14 13 13 13 12 12 11 12 12 11 11 11 11 11 10 10 10 10 10 10 10 10 10 9 9 10 10 10 9 9 8 9 8 9 8 7 8 7 7 6 6 6 6 7 7 7 7 6 6 8 8 9 11 10 7 7 6 7 7 6 6 7 7 7 8 8 9 9 8 10
18 18 19 20 19 18 18 17 18 19 18 16 18 17 16 14 13 14 14 13 13 12 11 12 11 11 11 12 12 12 12 11 11 11 10 9 10 10 10 10 10 11 10 9 8 8 8 9 9 7 8 8 8 8 7 8 6 6 7 7 7 6 6 6 7 7 8 11 11 8 7 7 7 8 7 8 8 8 9 10 10 10 10 11 10
19 18 19 19 18 19 19 18 19 20 19 18 18 17 15 15 14 13 14 14 14 13 13 12 12 12 13 13 12 12 11 11 11 11 11 11 10 10 10 10 10 10 10 10 9 9 9 9 9 8 8 9 9 8 7 8 6 7 8 8 7 6 7 7 7 8 9 10 10 11 7 8 8 7 6 6 7 9 9 10 10 10 10 11 12
18 18 19 20 18 19 18 18 18 18 17 17 15 15 15 15 15 14 14 15 14 14 13 14 12 13 13 13 13 12 12 11 11 11 11 11 11 11 11 11 11 10 10 10 10 10 10 10 9 9 10 10 10 9 8 7 7 8 8 9 8 7 7 7 7 8 9 9 10 10 10 8 8 10 7 6 7 8 10 10 10 9 8 9 10
18 18 18 18 17 19 18 17 17 16 15 15 15 15 15 15 15 14 13 15 15 15 15 14 13 13 13 13 13 12 11 11 11 11 11 12 11 11 11 11 11 11 10 10 10 10 10 10 10 10 11 11 10 9 9 8 7 8 8 8 8 8 8 7 7 8 9 9 10 10 9 9 7 8 7 6 8 9 9 9 11 9 8 8 8
18 18 18 18 17 17 16 15 15 14 15 15 15 15 15 14 14 13 13 14 13 14 14 14 13 13 13 13 12 12 12 12 11 11 12 12 12 12 12 12 11 11 11 11 10 11 11 10 10 11 11 11 12 10 10 8 7 8 8 8 8 8 8 8 8 9 9 10 10 9 9 10 10 9 9 8 9 11 7 6 9 9 9 10 11
18 19 19 17 15 15 15 14 14 15 14 14 14 14 14 14 14 14 14 14 13 12 13 13 13 13 13 13 13 11 11 11 12 16 13 11 11 10 10 11 11 11 10 10 11 11 11 11 10 12 11 12 12 14 14 13 13 12 9 9 10 10 9 9 10 10 9 10 10 9 11 11 11 10 10 11 10 9 9 8 9 9 8 11 13
18 19 18 17 15 15 14 14 13 14 14 13 13 14 14 13 13 13 13 13 14 13 13 14 14 13 14 14 14 12 12 11 15 15 16 15 12 11 11 10 10 11 11 11 11 11 11 11 11 10 11 12 13 15 14 15 16 16 15 14 13 12 12 12 12 13 12 13 12 11 11 13 13 11 10 9 9 10 9 5 7 9 9 10 12
19 17 16 15 15 16 15 15 14 14 14 14 14 14 14 13 13 13 13 14 12 12 13 14 14 14 13 14 14 14 13 14 15 16 17 17 15 12 11 10 10 11 11 12 11 10 11 10 10 9 10 12 11 10 13 16 16 16 17 17 17 17 16 14 14 14 13 13 14 14 12 12 12 9 8 7 9 9 6 6 7 9 11 12 9
18 16 15 15 15 15 15 15 15 15 15 15 14 13 14 14 14 13 15 14 13 14 14 14 15 14 14 14 14 15 14 14 16 17 17 17 18 15 12 11 11 11 11 12 12 11 10 10 10 9 8 11 10 11 10 10 14 19 18 16 16 17 19 20 20 16 13 16 17 18 15 11 11 7 5 8 8 10 8 6 7 10 10 10 12
17 17 15 15 15 15 15 15 15 15 14 14 14 14 14 15 15 14 13 13 13 13 15 16 14 14 14 14 14 14 14 13 17 18 18 18 18 15 13 14 13 12 13 12 11 12 11 10 10 10 10 9 9 11 11 11 10 9 10 10 11 15 18 21 21 22 19 15 16 18 13 9 12 9 4 3 7 10 8 9 9 11 11 11 12
16 16 15 15 15 15 15 15 15 15 14 14 14 14 15 14 15 14 13 14 14 14 15 15 14 14 14 14 13 13 14 15 15 18 18 18 18 15 12 13 13 13 13 13 13 12 12 11 11 12 10 10 10 10 11 11 11 11 13 14 13 13 12 13 14 13 13 12 14 17 18 15 14 11 6 8 10 9 8 13 9 10 11 13 16
15 15 14 15 16 16 16 16 15 15 15 15 15 15 14 14 15 14 13 13 12 12 13 13 14 15 15 15 15 15 14 15 16 17 18 17 17 11 11 12 14 14 13 13 13 12 12 12 11 12 11 11 11 14 13 11 11 13 14 14 14 15 14 14 14 12 12 12 13 15 15 16 12 10 8 7 6 3 10 10 6 12 17 17 18
15 15 16 17 17 17 17 17 16 16 16 16 16 15 14 14 13 12 13 13 13 13 13 14 13 14 15 14 15 14 14 14 16 17 17 17 13 10 11 11 12 14 14 13 12 12 12 12 12 11 11 12 12 15 16 13 12 14 15 15 14 14 15 13 13 18 19 19 21 21 21 20 15 13 12 8 5 7 12 13 17 13 14 15 17
16 15 16 16 16 16 16 17 16 16 15 16 16 15 14 13 14 12 13 14 14 14 13 13 13 13 15 16 15 15 15 12 17 17 17 18 16 11 10 11 13 13 13 13 12 11 13 15 13 13 13 12 13 15 15 12 12 13 14 15 16 16 16 14 11 8 17 21 22 19 17 16 21 22 18 13 13 11 12 15 15 9 12 13 16
17 17 17 16 16 15 16 16 15 16 15 15 15 15 15 14 13 13 13 14 14 12 12 12 13 13 14 16 15 16 15 12 17 18 19 20 17 11 11 11 12 13 12 12 12 11 11 11 15 14 13 13 14 14 15 13 12 13 14 14 16 16 15 12 12 14 12 8 6 7 8 14 15 13 12 17 18 19 15 16 12 13 13 15 14
17 16 16 15 15 15 15 15 15 15 14 14 14 14 13 13 14 13 12 12 12 12 12 12 14 12 12 14 13 15 15 14 12 19 19 20 21 13 11 11 13 13 12 12 11 10 11 10 11 17 19 18 16 13 13 16 13 12 12 14 15 16 12 11 12 12 11 8 7 5 10 11 11 11 10 7 7 14 14 13 13 12 14 14 13
14 14 14 15 15 15 14 14 15 15 15 15 15 14 13 13 13 13 14 13 13 12 13 13 13 13 13 13 13 14 13 14 12 19 19 20 21 18 11 13 13 11 11 11 11 11 10 9 10 14 19 19 18 16 13 15 14 12 13 14 14 11 9 11 15 9 7 10 10 8 9 9 9 8 8 6 7 8 8 10 11 11 12 14 15
13 12 13 14 14 15 15 13 14 14 13 12 12 12 12 13 12 13 12 12 13 13 13 12 12 12 12 12 12 12 12 14 12 15 19 20 20 23 13 14 13 12 11 11 11 11 10 9 9 11 16 16 17 16 15 14 16 10 12 15 16 6 8 12 8 5 6 8 9 9 9 9 9 8 7 6 7 7 7 8 8 9 9 12 15
12 12 12 13 13 14 14 14 13 12 12 13 13 13 12 13 13 12 12 12 12 13 13 11 11 11 10 9 10 11 11 10 16 12 17 20 21 21 22 17 15 12 12 11 11 11 9 10 10 10 13 15 15 15 15 16 12 11 16 15 13 1 7 10 6 6 8 9 10 12 12 8 8 7 7 7 7 7 7 8 9 10 10 11 12
11 12 12 13 13 13 14 14 14 13 13 13 13 13 13 12 12 11 12 12 12 12 12 13 13 12 12 12 11 11 10 11 12 17 14 20 19 22 22 22 17 13 13 12 11 10 10 10 8 9 13 14 14 14 13 12 10 15 15 14 7 5 8 10 10 7 7 8 8 9 9 8 8 8 7 7 8 9 10 10 9 8 9 10 12
11 12 13 13 13 13 13 13 13 13 13 13 13 13 13 12 12 11 12 12 12 12 13 12 13 13 12 11 10 10 10 10 10 13 19 17 20 20 21 22 21 18 13 13 13 10 3 7 11 11 10 11 11 10 8 12 13 11 12 10 10 6 7 12 10 7 7 8 7 8 7 7 7 7 8 9 10 9 7 7 7 8 9 10 12
11 12 12 12 13 13 13 13 13 13 13 12 13 12 13 13 12 11 12 12 12 14 13 12 14 13 11 11 10 10 10 9 10 9 11 14 15 18 21 21 21 21 19 8 1 6 9 10 11 12 10 10 9 7 7 6 8 9 11 13 10 11 9 11 12 8 7 8 7 6 6 6 7 8 9 7 5 5 7 8 9 8 8 10 11
10 9 10 10 10 11 12 11 11 12 13 12 12 12 12 11 11 11 12 12 13 13 14 15 13 12 11 11 10 10 9 9 9 9 9 9 9 10 11 12 14 10 8 8 5 3 7 8 8 8 8 9 7 8 8 9 8 6 6 7 7 9 10 12 11 8 8 8 7 6 6 7 7 6 5 5 5 5 6 8 9 9 10 10 11
9 9 10 8 7 9 9 10 11 10 11 12 12 12 12 12 11 12 12 12 12 12 13 12 11 11 11 11 10 9 9 9 9 10 10 10 10 9 9 9 9 10 10 9 9 8 7 7 8 7 7 7 7 7 8 8 8 8 8 7 7 6 7 6 4 6 5 4 5 7 7 5 5 6 6 6 5 5 6 7 8 9 10 10 10
7 7 5 6 6 6 8 8 10 9 9 10 4 1 3 8 10 11 10 11 12 12 11 11 11 11 11 10 9 9 9 9 10 11 11 11 11 10 10 10 10 9 13 11 8 8 8 9 8 8 8 9 8 8 7 7 5 5 6 6 5 6 7 7 8 7 5 4 4 4 4 4 5 5 5 6 5 5 6 7 8 8 9 9 9
8 7 6 5 5 6 6 7 8 8 9 8 6 3 5 4 5 2 5 3 4 7 6 10 10 10 11 10 10 10 10 9 7 12 13 14 15 15 13 14 14 10 13 17 11 8 10 12 11 11 11 10 10 9 8 7 7 6 5 5 5 5 5 4 3 3 2 1 0 2 3 3 4 4 5 5 6 5 6 8 8 8 9 9 10
5 5 4 4 3 4 5 5 5 5 5 5 6 6 4 4 8 9 6 5 4 5 7 8 5 8 9 9 7 5 3 2 8 14 15 15 16 16 15 11 12 12 17 13 9 9 9 10 10 10 10 10 9 8 8 8 7 7 7 6 5 5 5 4 4 4 3 3 3 3 2 2 3 4 5 5 7 7 6 7 6 7 7 8 9
4 4 4 5 5 5 4 3 3 3 3 3 5 6 5 5 3 8 9 6 6 3 1 4 6 8 12 13 8 4 4 4 7 11 14 15 15 14 11 12 13 16 18 15 9 8 9 10 10 10 9 8 7 7 7 7 7 7 7 7 7 6 6 5 5 5 4 4 3 2 1 1 1 2 3 4 6 5 5 6 5 6 6 6 7
4 4 3 3 3 3 3 4 3 3 4 5 5 5 6 7 6 5 3 7 7 7 7 7 5 6 8 11 12 11 11 10 9 8 9 10 11 11 11 13 14 15 15 9 8 8 8 8 7 7 7 7 7 7 6 6 7 7 6 7 7 6 5 6 6 4 4 3 3 2 2 1 0 1 2 2 3 4 4 4 4 5 5 6 6
3 3 3 3 3 3 2 2 3 3 3 4 4 5 6 6 6 6 6 5 3 4 8 10 10 9 7 6 4 3 6 10 10 10 11 12 13 13 13 8 10 13 7 9 8 7 7 7 7 7 6 7 7 6 6 5 5 6 6 6 6 6 6 7 6 5 4 5 3 3 2 1 1 1 0 1 1 2 3 3 4 5 5 6 6
2 4 4 3 2 2 2 3 3 3 4 4 5 6 5 6 6 7 7 7 7 8 7 4 8 12 6 4 4 3 8 9 11 12 13 14 16 16 17 13 10 7 3 4 5 6 7 7 7 6 6 7 6 6 6 6 6 6 6 6 6 6 6 6 5 4 4 3 3 2 1 1 1 1 1 0 0 1 2 3 3 4 4 5 5
3 3 3 2 1 1 1 2 2 3 4 4 4 5 6 7 6 7 6 6 5 5 4 3 3 6 8 10 10 5 5 9 11 13 15 16 19 18 10 7 7 6 6 5 6 6 7 7 7 6 6 6 6 6 6 6 6 6 6 6 6 6 6 5 5 4 3 3 3 2 2 2 1 1 1 1 1 2 3 3 3 3 3 4 3
4 4 2 2 1 0 0 1 2 3 3 3 4 4 5 5 5 5 5 4 3 3 4 4 3 4 5 6 8 9 8 7 9 11 13 16 11 2 3 6 7 8 7 7 7 8 7 6 6 6 6 6 6 6 6 6 6 5 5 4 5 5 5 4 4 4 4 4 3 3 2 2 2 1 1 2 2 3 3 2 2 3 4 3 3
5 4 3 2 1 1 1 1 1 4 4 4 4 4 5 5 4 4 3 3 3 4 4 4 3 3 4 4 4 4 8 10 13 9 5 2 3 6 7 6 6 4 7 8 7 8 8 6 5 5 5 5 6 6 6 6 6 6 6 5 4 4 5 5 4 3 3 3 3 3 2 2 1 1 1 2 2 2 2 3 3 3 2 2 4
4 2 4 5 2 2 1 1 2 2 3 3 3 3 4 4 4 3 2 3 3 3 4 5 3 4 5 6 7 9 11 8 7 6 5 3 4 7 8 7 8 8 6 7 8 8 7 6 6 5 5 5 5 4 5 5 5 4 4 5 5 5 5 4 4 3 3 3 3 2 2 2 1 1 1 2 2 2 2 2 3 3 4 4 4
4 3 1 4 3 1 2 1 2 2 2 2 3 3 3 4 3 3 3 4 4 4 5 5 5 5 6 7 7 6 6 6 7 7 7 6 6 7 8 8 8 7 7 7 7 6 7 6 6 7 7 7 7 5 4 4 4 4 3 4 5 5 4 4 4 4 4 3 3 2 2 2 2 1 2 2 2 1 1 2 2 2 3 4 4
4 3 3 2 4 2 2 2 2 2 2 2 2 2 2 2 2 3 4 5 5 6 5 5 6 5 4 6 8 8 8 8 9 9 9 7 8 7 6 7 7 7 7 7 7 6 6 7 6 6 6 6 6 5 4 3 3 3 3 4 4 4 4 4 3 3 4 3 3 3 3 2 1 1 2 2 1 2 0 1 1 1 1 2 3
4 4 3 2 2 3 2 2 1 3 2 3 2 2 2 3 3 4 5 6 6 7 8 8 7 6 7 14 17 18 13 11 10 10 9 8 8 8 7 7 6 7 7 7 6 7 6 6 6 5 6 5 5 5 4 3 3 3 3 3 3 4 4 4 3 3 3 3 3 2 2 2 1 1 1 2 1 1 1 1 2 1 2 2 3
3 3 3 2 3 3 3 1 2 2 3 3 4 4 5 6 6 7 7 7 7 8 9 10 9 9 8 9 14 15 10 9 9 9 8 9 9 7 8 8 7 8 9 8 8 7 7 7 7 7 7 7 6 5 5 5 4 3 2 2 2 3 3 3 3 3 2 2 2 2 1 1 1 1 1 1 1 1 1 1 2 2 1 1 2
2 2 2 3 3 3 3 2 2 3 4 6 7 6 7 7 7 7 8 8 8 8 9 10 10 9 8 8 8 12 11 12 9 9 9 8 8 8 8 8 8 7 8 9 8 8 7 7 8 8 8 7 7 8 7 6 6 5 3 2 2 2 1 1 1 1 0 1 1 1 1 1 0 1 0 1 1 2 1 1 1 1 2 2 2
1 1 1 1 2 1 1 2 5 7 8 8 8 8 8 8 8 8 9 9 9 8 8 9 10 10 9 8 9 12 11 11 11 11 9 8 8 7 8 9 8 7 8 8 7 7 7 8 7 7 8 7 7 7 6 6 6 5 4 4 4 3 4 4 4 3 3 2 1 1 1 1 1 1 1 1 1 2 1 1 1 1 2 1 2
3 3 4 5 5 4 4 4 5 6 7 8 8 8 8 8 8 9 9 9 8 9 9 8 8 8 9 8 8 9 10 11 10 10 10 9 9 8 8 8 8 8 8 8 8 8 8 8 8 8 8 7 7 7 6 6 6 6 6 6 5 4 4 4 4 4 4 3 3 2 2 2 2 1 1 3 2 1 2 1 1 1 2 2 2
4 4 5 6 6 6 6 6 7 9 10 10 10 10 9 8 8 9 9 10 11 11 9 10 10 10 10 10 10 11 10 9 8 9 9 9 8 8 8 8 8 8 8 8 9 9 9 9 8 8 8 7 7 8 7 7 6 6 6 6 7 6 6 6 6 5 4 4 4 4 3 4 3 3 3 3 3 2 2 2 1 1 2 2 3
5 6 7 7 6 6 6 7 10 13 13 12 10 10 8 9 9 9 9 11 13 13 13 10 9 9 10 10 10 11 10 9 9 9 8 8 8 8 8 9 9 8 8 9 9 9 8 8 8 8 8 8 8 8 7 7 7 7 7 7 7 7 9 9 5 5 5 6 5 5 4 5 4 3 3 3 3 2 3 2 2 1 1 2 2
6 7 8 8 7 7 7 8 10 12 13 14 16 15 13 12 10 9 10 11 13 11 10 10 11 10 11 9 10 10 10 11 10 9 8 8 8 8 9 9 9 9 9 9 9 9 9 8 8 8 8 7 8 8 8 8 7 7 7 7 9 12 10 10 6 6 9 6 4 4 4 5 5 4 4 4 3 3 3 3 3 3 3 2 2
6 7 9 10 9 8 8 8 9 10 11 12 14 14 13 14 14 14 14 13 13 13 13 13 11 11 12 12 12 10 9 9 9 9 8 8 8 8 8 9 10 9 9 9 8 8 8 8 8 8 8 8 8 8 8 8 8 7 7 7 10 10 11 10 7 11 9 5 5 4 4 3 3 3 3 3 3 4 4 4 3 3 4 4 4
6 7 8 10 10 9 7 7 9 10 10 11 11 11 11 10 10 10 11 12 13 13 13 13 12 11 12 12 12 12 10 10 9 9 8 8 8 9 9 9 9 9 9 8 8 8 8 8 8 8 8 8 8 8 8 8 8 8 8 10 11 12 12 12 9 11 12 9 4 4 4 4 4 4 3 3 3 3 3 4 4 4 4 4 5
Wind_Direction
190 190 188 192 191 191 193 194 198 199 200 198 201 204 204 204 203 206 197 200 198 199 202 206 208 212 219 220 222 220 216 214 209 209 212 218 220 228 233 234 233 238 233 236 227 216 222 230 234 231 221 227 231 232 226 213 213 222 223 224 233 224 220 232 252 273 279 249 255 271 267 266 262 221 245 246 242 228 228 239 243 244 242 243 247
191 188 188 189 192 192 195 196 198 200 202 202 203 203 203 201 200 197 201 200 198 203 204 207 208 211 215 219 219 220 217 212 212 209 214 217 219 217 224 228 233 239 240 240 232 231 219 224 234 234 223 227 236 236 233 231 222 227 218 221 229 227 205 229 248 261 279 270 259 232 245 205 263 226 237 256 257 239 237 235 236 235 239 243 245
188 184 185 186 190 192 193 195 195 197 200 202 205 205 205 204 199 200 207 208 203 207 208 208 206 205 211 216 216 218 218 218 216 217 218 217 218 221 221 220 223 229 228 229 227 222 229 227 233 232 227 230 233 239 238 232 234 239 241 232 234 237 217 213 242 259 270 278 268 268 261 232 242 263 244 247 254 252 257 252 245 239 234 236 246
187 184 185 189 190 189 191 194 195 197 200 204 206 206 205 202 199 202 205 209 206 205 208 209 205 202 206 211 213 216 216 217 217 217 220 219 220 221 221 222 225 228 229 231 225 220 227 233 237 234 230 233 238 241 233 224 223 230 240 239 236 240 235 214 222 250 268 279 279 270 270 268 269 260 255 251 260 258 252 261 253 252 249 241 238
187 187 188 191 191 192 193 194 195 198 201 203 206 205 205 202 199 202 204 209 210 204 204 206 207 203 208 210 212 213 215 214 216 222 223 222 222 224 224 224 227 230 232 233 229 226 229 234 240 233 227 236 241 239 236 223 220 228 239 241 237 236 232 229 230 231 250 261 274 270 268 266 264 266 263 271 273 263 254 249 255 255 249 249 252
187 185 187 191 192 194 194 195 198 199 200 202 203 202 202 202 201 200 203 207 208 209 204 203 206 206 209 211 211 212 211 212 214 218 222 223 222 224 226 227 229 230 231 232 229 226 232 235 234 230 231 237 246 245 239 231 222 229 239 243 242 235 232 234 231 235 242 255 263 276 261 265 273 264 263 242 260 273 271 265 258 243 243 255 252
183 184 186 190 191 193 193 195 197 199 198 200 199 199 201 202 202 203 202 206 207 209 209 207 206 207 208 210 213 212 211 211 213 214 218 221 222 223 227 229 232 232 233 232 232 230 231 233 232 228 232 236 243 246 243 239 230 235 234 239 241 238 239 240 232 236 242 253 260 260 272 265 255 269 263 241 252 255 268 276 269 254 243 243 258
179 181 184 188 190 192 192 193 195 196 195 195 197 198 199 201 203 204 202 205 209 211 211 209 207 207 210 211 213 213 212 212 212 213 214 216 219 222 223 228 231 232 235 233 233 234 232 232 232 230 231 233 235 240 238 241 239 237 235 233 238 240 247 247 242 243 246 249 253 265 263 268 265 257 256 241 259 256 238 247 269 274 265 258 250
178 180 183 187 189 187 187 189 191 190 191 191 194 196 198 200 200 201 201 205 209 212 212 212 210 210 211 212 212 213 216 217 216 212 211 214 218 223 223 224 226 231 235 235 233 233 236 236 235 235 231 227 226 230 235 233 240 246 241 235 233 236 242 247 248 248 249 250 255 255 259 259 257 257 255 244 241 253 256 237 260 268 276 278 272
177 182 185 187 184 180 180 183 186 188 188 190 193 195 198 199 200 201 202 204 207 209 212 212 213 211 209 210 210 212 216 219 214 205 206 213 214 220 222 224 225 230 232 235 237 235 236 237 238 232 227 218 219 223 228 229 228 239 246 252 258 256 250 253 257 255 251 256 253 253 258 256 251 241 247 248 256 265 264 253 266 278 278 272 276
178 182 188 186 179 178 179 184 184 186 190 193 193 196 199 199 201 202 204 206 208 207 206 209 212 214 214 213 212 213 217 219 207 199 204 209 216 221 220 222 221 223 228 232 237 238 239 237 242 228 214 220 225 225 227 226 227 229 235 241 247 252 261 261 261 263 268 274 270 256 249 255 251 246 248 262 268 267 271 278 278 280 274 287 293
182 185 187 179 177 182 188 188 189 190 190 193 194 196 198 200 201 200 201 204 204 205 208 210 215 218 218 217 216 217 220 217 200 198 201 204 209 221 227 227 226 225 228 231 234 237 237 238 236 237 233 230 234 226 222 227 230 230 229 230 233 238 241 249 260 265 263 267 270 263 253 248 255 243 251 268 271 273 272 267 261 266 276 277 271
181 182 183 178 181 182 183 185 187 189 192 193 194 194 196 199 200 202 206 208 208 209 213 215 217 217 218 218 221 221 225 210 197 198 200 199 204 212 229 233 230 231 230 229 231 232 233 234 238 236 238 211 220 238 244 233 220 229 233 231 232 231 235 240 242 248 257 263 267 269 261 261 266 266 233 250 272 278 284 266 251 263 266 270 268
180 182 181 179 178 179 182 185 188 191 190 191 193 195 196 201 204 206 208 207 208 210 212 216 218 216 217 220 223 226 227 211 196 199 198 198 200 201 226 230 234 236 234 232 230 230 229 230 233 237 238 230 226 227 235 241 246 232 231 229 231 229 226 232 237 240 241 250 259 265 263 248 262 262 206 203 271 279 282 274 269 269 266 266 276
178 179 181 179 178 181 184 186 190 190 190 190 192 196 197 200 202 205 207 207 206 207 213 216 218 218 219 220 224 228 230 217 196 197 198 198 197 196 218 227 234 238 237 235 234 233 232 230 231 238 240 235 241 223 229 238 241 251 257 259 255 255 248 236 227 228 230 231 243 250 260 258 257 265 277 283 273 269 269 263 278 285 289 289 282
177 176 177 179 183 184 185 188 189 189 190 191 194 197 198 199 200 202 207 210 212 213 214 217 217 217 219 221 225 230 233 212 197 196 197 197 189 197 213 221 229 236 238 236 235 234 232 232 235 236 236 239 227 205 217 235 245 257 263 262 264 265 262 248 231 232 229 233 233 242 251 257 256 266 270 265 275 63 278 282 300 284 282 284 283
178 179 182 184 186 186 188 190 191 191 191 193 196 197 198 199 201 200 206 211 213 214 216 215 217 221 221 220 224 229 234 212 195 196 193 188 182 206 209 220 227 231 236 237 236 234 231 230 230 237 237 241 226 201 210 214 240 252 259 263 267 269 269 271 231 219 226 230 239 245 251 265 278 270 258 223 178 211 270 283 277 268 277 280 283
183 180 184 187 187 187 189 190 191 191 191 195 196 200 201 204 204 200 205 209 215 217 217 219 219 220 221 222 220 225 232 210 187 193 189 181 187 201 208 216 226 228 233 234 235 235 232 223 227 237 244 240 223 202 203 198 231 243 252 261 265 267 270 271 274 243 210 225 234 242 254 266 267 266 263 243 181 190 214 234 249 260 262 264 268
184 183 186 186 186 185 187 189 191 190 193 195 197 200 202 203 204 203 207 211 218 219 218 220 220 220 223 225 218 223 233 220 187 191 188 184 190 206 210 218 223 228 229 234 232 235 237 222 215 226 234 238 227 203 196 194 224 238 246 259 266 268 271 273 272 277 268 254 231 213 242 245 251 254 245 233 207 200 213 230 247 249 250 260 265
184 184 186 186 187 187 188 190 192 192 193 195 199 202 202 203 204 203 207 211 215 218 217 219 221 223 223 224 225 223 229 233 195 189 187 187 190 201 212 215 226 226 228 231 235 232 231 233 208 208 224 233 236 215 193 195 217 234 249 259 266 267 272 281 276 265 278 291 291 273 274 278 274 271 275 269 205 191 204 218 234 247 257 262 264
173 178 182 186 188 189 191 193 192 194 197 197 199 202 202 203 202 203 207 210 214 217 218 221 223 226 226 226 229 227 225 226 207 183 189 188 193 199 213 219 224 224 225 227 230 236 234 229 236 206 210 222 229 228 198 199 213 232 244 256 254 273 305 282 273 285 293 288 288 285 286 287 284 280 280 274 286 285 259 228 221 228 250 263 268
171 175 174 184 188 189 192 193 193 197 198 195 196 201 205 205 205 205 209 209 212 215 216 218 222 227 228 227 229 229 222 210 226 183 188 190 193 198 211 220 218 220 225 232 232 236 232 231 231 210 200 210 219 223 211 198 208 218 237 243 260 313 277 266 283 322 296 290 292 298 297 292 294 295 293 295 303 302 302 299 293 291 281 273 269
171 173 176 185 188 189 192 190 190 197 196 195 194 201 200 201 203 203 203 206 208 212 213 213 218 226 229 227 226 224 223 210 208 203 188 193 195 198 208 219 210 214 227 232 231 231 226 229 231 213 185 198 207 213 211 201 193 216 229 238 250 273 272 266 275 276 278 278 284 284 286 286 291 299 305 317 323 328 316 309 303 293 286 283 283
164 173 178 184 186 191 192 192 194 199 199 196 198 204 203 202 202 203 201 201 209 215 220 227 226 226 229 230 229 226 223 225 199 204 194 194 198 199 206 217 217 215 221 232 234 232 230 230 225 185 182 186 198 204 208 182 200 209 215 224 199 192 262 275 270 260 267 276 273 278 287 295 302 309 324 336 333 327 314 306 304 301 299 296 293
169 178 183 187 188 193 193 195 196 198 199 194 196 202 203 198 200 202 206 207 211 219 222 219 224 226 224 223 226 224 223 217 219 196 200 193 199 201 207 210 218 217 220 229 232 238 176 120 121 141 154 165 171 172 174 189 202 188 189 165 148 152 245 259 258 252 252 260 270 282 291 302 310 321 329 325 314 307 304 308 313 310 305 299 296
175 181 184 186 191 193 194 196 196 196 196 197 199 201 202 201 203 203 203 208 213 221 221 222 225 225 220 225 225 224 218 216 216 207 190 201 201 204 206 209 213 212 216 230 72 127 133 135 133 129 131 137 144 160 167 160 173 151 152 153 167 175 198 233 253 258 269 277 281 289 300 313 316 319 312 312 316 325 330 327 325 319 322 318 315
173 177 185 188 189 194 197 199 198 199 199 203 205 205 205 206 203 202 201 206 210 217 222 226 222 222 221 223 224 222 217 213 209 212 196 191 201 199 206 218 219 217 224 231 193 155 129 147 150 147 132 149 130 114 117 122 126 130 148 172 182 185 193 215 229 242 254 274 286 299 309 309 311 312 316 326 329 337 339 330 326 325 327 329 321
170 180 184 181 183 190 199 199 199 203 201 203 208 209 208 209 209 205 202 202 205 208 214 213 212 213 219 221 222 222 220 216 211 209 208 201 199 193 187 193 186 191 200 205 202 192 159 113 117 129 127 137 140 152 154 157 158 159 166 176 186 193 198 216 255 259 280 323 313 311 310 327 327 326 325 326 332 336 346 338 335 330 333 333 330
132 142 155 171 182 176 196 196 204 208 202 200 185 39 237 216 213 215 209 203 203 204 206 210 210 213 216 220 217 219 220 218 215 202 205 195 193 197 193 193 195 190 200 173 154 163 178 188 194 187 186 183 181 176 155 147 132 133 143 154 162 174 192 203 213 222 244 281 291 311 326 322 313 315 318 320 329 342 352 346 342 339 335 337 335
127 134 146 159 168 171 187 194 195 201 203 198 155 124 58 70 12 302 218 143 194 224 216 218 217 214 218 220 217 215 220 223 202 184 196 195 198 202 199 194 186 192 161 154 160 165 183 207 211 210 211 212 204 194 159 150 144 148 143 141 157 162 170 175 180 172 195 220 293 265 276 290 297 320 326 329 334 344 0 351 345 344 340 342 343
105 117 118 126 141 161 173 184 179 183 196 179 162 158 155 87 56 40 14 356 310 240 231 238 246 214 204 215 201 200 246 93 167 185 191 197 199 203 204 189 166 141 135 143 173 188 178 195 201 202 200 201 192 165 149 151 150 147 149 158 160 154 164 157 146 143 160 175 207 234 246 285 323 335 334 339 340 338 344 351 353 351 348 344 346
100 99 95 116 133 153 151 139 150 157 156 155 163 171 174 171 150 43 36 27 38 44 317 255 251 244 225 219 211 196 198 230 214 191 194 196 199 196 181 159 150 147 161 160 168 182 193 198 190 188 179 168 149 141 146 144 148 152 154 156 155 161 159 150 154 167 171 185 196 203 217 276 313 339 336 343 340 335 341 342 351 355 353 355 1
86 82 85 96 106 116 134 141 147 154 166 176 181 182 191 195 183 167 75 56 68 71 55 37 10 323 283 258 231 204 204 193 189 185 177 168 153 150 145 145 149 154 150 175 181 174 176 164 157 155 152 145 135 135 136 145 153 157 156 152 149 150 142 131 159 170 179 175 184 173 192 182 262 344 345 345 337 330 336 337 349 351 354 354 1
60 63 78 86 96 111 120 145 152 157 165 183 187 188 200 202 205 178 164 169 145 85 74 58 34 9 15 358 268 231 143 154 155 147 141 138 135 127 118 117 133 157 173 190 175 153 151 146 144 141 131 119 124 126 134 140 146 146 143 137 131 129 133 149 169 172 162 171 184 157 178 177 144 229 61 352 338 325 336 346 359 3 12 11 7
52 65 44 16 61 100 127 140 161 161 176 195 201 207 199 203 208 188 193 188 188 192 191 125 64 38 14 8 24 124 146 146 144 144 139 138 133 129 117 121 134 163 196 171 137 139 136 133 128 118 117 119 124 132 137 146 147 142 135 131 133 139 153 167 161 153 157 154 154 146 143 186 184 200 187 160 313 16 16 7 22 16 17 16 14
49 60 56 23 40 62 115 140 150 159 178 193 203 212 213 214 205 201 204 204 192 166 129 70 50 46 58 46 42 53 115 137 142 144 145 143 146 143 140 144 136 147 145 130 119 105 106 111 116 116 116 119 131 138 143 140 141 136 136 138 143 153 154 146 143 147 149 142 123 139 172 161 157 189 147 128 71 47 32 28 37 34 28 28 15
29 36 35 24 334 2 356 135 160 143 158 181 192 204 213 212 208 202 201 190 158 135 110 119 129 105 78 61 63 64 76 102 117 130 140 144 161 186 121 137 140 136 127 119 119 115 104 99 106 118 126 135 138 136 135 137 135 130 130 132 137 147 139 134 135 149 156 147 147 152 151 119 133 157 149 86 69 50 39 39 68 67 45 21 336
5 1 356 348 333 315 276 242 109 136 151 161 183 200 207 205 195 200 188 164 141 137 136 136 145 135 129 123 124 120 107 109 106 97 114 163 174 103 93 73 67 81 115 110 99 103 105 111 114 120 123 126 128 136 137 135 142 142 140 136 133 106 118 128 147 145 135 133 134 134 140 132 162 161 147 76 61 54 50 30 22 33 49 35 10
14 40 328 326 312 299 242 223 177 190 148 164 165 195 200 190 181 170 140 119 134 126 126 134 131 127 129 138 134 135 129 130 137 137 139 129 114 115 112 109 109 103 95 98 99 98 107 107 100 99 109 114 121 124 126 130 130 130 131 135 131 137 160 146 137 142 137 125 128 131 128 137 141 113 34 69 69 51 43 36 27 17 12 11 14
349 338 18 297 276 221 255 209 207 188 161 161 157 169 177 198 191 159 146 136 126 122 158 158 149 128 138 144 141 148 123 110 85 82 56 37 55 65 81 88 100 114 115 98 95 100 100 98 109 118 121 125 132 130 116 116 117 122 133 131 135 138 139 137 137 135 133 131 130 139 140 134 117 128 87 50 37 46 15 26 30 8 10 355 0
335 325 313 297 328 283 211 211 194 178 165 152 136 151 171 183 148 106 111 103 115 138 125 106 114 105 92 89 84 85 98 94 92 85 84 87 83 85 96 112 113 101 97 94 93 94 101 110 118 122 119 124 126 123 116 103 107 116 116 123 130 133 136 133 133 131 134 147 142 135 132 128 101 47 61 65 234 261 32 296 336 358 356 355 354
325 308 296 274 240 269 264 229 159 138 130 121 129 137 140 136 125 116 105 115 122 123 111 98 84 79 88 100 98 96 94 93 92 96 99 96 92 87 76 65 74 86 90 89 96 98 98 102 108 107 110 107 105 105 108 105 101 110 124 135 132 137 140 139 138 140 151 139 137 126 114 81 54 12 20 302 293 333 301 339 357 346 358 353 16
319 309 303 283 281 273 271 223 188 150 136 119 111 104 112 119 118 118 117 117 119 117 111 106 103 97 88 93 102 99 95 92 92 86 83 83 75 71 72 70 64 67 80 88 90 93 98 96 91 90 87 87 86 92 92 89 89 85 93 113 126 128 129 130 141 152 151 149 137 129 142 143 198 265 13 306 313 299 336 322 309 334 324 331 347
314 318 307 300 289 266 249 215 164 118 94 92 98 102 108 107 110 114 115 114 111 111 114 115 116 113 113 105 98 101 104 106 103 102 92 77 70 65 64 66 64 59 60 68 78 89 94 93 88 81 77 71 68 67 67 59 61 72 80 95 92 64 84 99 110 114 173 188 158 190 169 158 273 258 201 289 292 309 289 316 314 323 330 326 335
17 22 20 23 1 332 119 116 110 108 110 102 87 83 86 93 103 107 110 109 108 106 110 117 117 115 109 97 92 91 84 76 76 71 64 71 72 65 67 69 64 55 57 53 45 47 60 67 72 72 72 66 58 61 60 58 55 53 47 26 25 32 17 6 355 342 322 297 254 226 235 249 236 249 251 245 305 288 293 304 316 301 262 276 288
33 47 65 68 59 42 33 29 36 64 80 84 84 76 71 76 85 92 92 87 82 84 78 69 61 54 59 65 54 57 71 83 83 79 79 73 80 69 60 65 64 61 60 59 56 52 53 57 62 65 64 62 57 58 60 57 53 49 40 39 27 17 1 340 327 311 305 300 293 279 270 274 260 277 294 285 256 284 308 312 286 295 329 312 311
46 72 67 82 91 88 77 63 70 77 74 69 67 67 61 56 59 67 70 74 79 78 70 70 67 64 59 49 49 58 56 52 64 70 74 74 71 70 70 68 68 67 63 60 59 61 58 59 61 63 63 63 64 57 53 50 47 43 42 35 26 4 2 341 319 313 316 312 297 284 290 289 281 259 209 230 265 241 264 267 310 315 305 324 318
65 77 80 79 84 85 81 86 89 84 82 78 74 68 61 60 54 56 58 71 78 80 79 73 69 70 72 69 64 60 60 60 60 61 64 69 69 68 67 68 67 68 68 64 61 59 57 58 59 61 63 60 59 57 53 47 47 39 37 34 24 5 338 323 308 324 333 316 295 286 276 273 271 272 270 278 281 295 277 271 253 260 288 290 293
65 78 81 75 73 72 81 82 86 91 94 94 89 84 80 76 71 68 65 68 69 61 61 69 72 70 73 70 73 68 64 62 57 53 54 59 65 66 70 71 70 68 69 66 62 60 57 56 55 56 57 57 58 57 54 46 40 39 31 30 5 347 344 340 332 356 309 286 290 294 279 266 267 266 271 268 269 266 266 276 279 290 282 275 276
45 66 80 79 74 71 71 78 81 86 87 89 91 92 91 92 90 89 86 81 76 73 74 72 69 70 74 73 72 70 70 67 62 57 53 53 59 63 65 68 68 67 68 68 64 61 61 57 54 52 50 50 51 53 51 48 41 32 28 10 346 351 2 355 13 2 345 343 322 326 325 313 297 285 286 284 285 275 271 269 289 292 293 292 281
42 53 64 71 73 72 68 70 75 76 78 82 83 86 88 86 88 90 94 95 98 93 86 82 82 79 77 73 73 71 67 66 66 65 53 45 49 57 62 65 69 70 70 71 70 66 60 58 56 54 50 50 48 49 47 42 38 27 6 356 4 8 13 13 13 358 354 337 323 341 347 356 354 352 349 348 323 309 326 318 296 294 294 293 292